GW5827 Weather Reports


time (UTC)temp
F
wind
direction
speed
knots
gust
knots
rain 1hr
in
rain 24hr
in
rain mn
in
humidity
%
barometer
mb
20260906145531 86 152 0.9 0.9 0.00 0.00 0.00 64 1015.6
20260906145026 85 172 0.0 0.9 0.00 0.00 0.00 64 1015.4
20260906144520 85 159 0.9 0.9 0.00 0.00 0.00 64 1015.4
20260906144015 86 140 0.9 1.7 0.00 0.00 0.00 65 1015.5
20260906143510 85 183 0.9 1.7 0.00 0.00 0.00 66 1015.4
20260906143008 85 158 0.9 1.7 0.00 0.00 0.00 66 1015.5
20260906142506 86 184 0.9 1.7 0.00 0.00 0.00 64 1015.3
20260906142001 85 188 0.9 1.7 0.00 0.00 0.00 67 1015.4
20260906141455 85 146 0.9 0.9 0.00 0.00 0.00 66 1015.3
20260906140951 84 171 0.0 0.9 0.00 0.00 0.00 67 1015.2
20260906140445 83 151 0.0 0.9 0.00 0.00 0.00 69 1015.2
20260906135943 82 177 1.7 1.7 0.00 0.00 0.00 71 1015.1
20260906135442 83 166 0.9 1.7 0.00 0.00 0.00 71 1015.3
20260906134938 83 160 0.0 0.9 0.00 0.00 0.00 70 1015.4
20260906134433 83 159 0.9 0.9 0.00 0.00 0.00 70 1015.2
20260906133933 83 139 0.0 0.0 0.00 0.00 0.00 70 1015.3
20260906133428 82 147 0.0 0.9 0.00 0.00 0.00 71 1015.5
20260906132924 82 160 0.9 0.9 0.00 0.00 0.00 73 1015.6
20260906132419 81 157 0.0 0.0 0.00 0.00 0.00 76 1015.5
20260906131915 81 154 0.9 0.9 0.00 0.00 0.00 75 1015.5
20260906131410 81 71 0.0 1.7 0.00 0.00 0.00 75 1015.4
20260906130906 80 179 0.9 0.9 0.00 0.00 0.00 76 1015.3
20260906130405 79 159 0.0 0.9 0.00 0.00 0.00 78 1015.3
20260906125904 79 175 0.0 0.9 0.00 0.00 0.00 78 1015.2
20260906125401 79 167 0.0 0.0 0.00 0.00 0.00 79 1015.2
20260906124856 79 165 0.0 0.0 0.00 0.00 0.00 80 1015.4
20260906124352 79 168 1.7 1.7 0.00 0.00 0.00 80 1015.2
20260906123851 78 160 0.0 0.0 0.00 0.00 0.00 82 1015.1
20260906123346 77 166 0.0 0.0 0.00 0.00 0.00 84 1015.2
20260906122846 77 161 0.0 0.0 0.00 0.00 0.00 85 1015.0
20260906122341 76 162 0.0 0.0 0.00 0.00 0.00 86 1014.9
20260906121838 76 166 0.0 0.0 0.00 0.00 0.00 86 1014.6
20260906121333 76 161 0.0 0.0 0.00 0.00 0.00 87 1014.6
20260906120830 75 157 0.0 0.0 0.00 0.00 0.00 88 1014.5
20260906120325 75 162 0.0 0.0 0.00 0.00 0.00 88 1014.6
20260906115821 75 156 0.0 0.0 0.00 0.00 0.00 89 1014.6
20260906115316 75 156 0.0 0.0 0.00 0.00 0.00 88 1014.6
20260906114816 75 156 0.0 0.0 0.00 0.00 0.00 88 1014.4
20260906114311 75 156 0.0 0.0 0.00 0.00 0.00 88 1014.5
20260906113812 75 160 0.0 0.0 0.00 0.00 0.00 88 1014.5
20260906113311 75 160 0.0 0.0 0.00 0.00 0.00 87 1014.5
20260906112806 75 160 0.0 0.0 0.00 0.00 0.00 87 1014.5
20260906112306 76 160 0.0 0.0 0.00 0.00 0.00 87 1014.4
20260906111802 76 160 0.0 0.0 0.00 0.00 0.00 86 1014.5
20260906111301 76 160 0.0 0.0 0.00 0.00 0.00 86 1014.4
20260906110757 76 160 0.0 0.0 0.00 0.00 0.00 85 1014.5
20260906110252 76 160 0.0 0.0 0.00 0.00 0.00 85 1014.4
20260906105751 77 161 0.0 0.0 0.00 0.00 0.00 84 1014.0
20260906105247 77 162 0.0 0.0 0.00 0.00 0.00 84 1014.2
20260906104743 77 157 0.0 0.0 0.00 0.00 0.00 83 1014.1
20260906104241 78 157 0.0 0.0 0.00 0.00 0.00 83 1014.3
20260906103739 78 163 0.0 0.0 0.00 0.00 0.00 81 1014.3
20260906103233 78 163 0.0 0.0 0.00 0.00 0.00 81 1014.1
20260906102729 78 158 0.0 0.0 0.00 0.00 0.00 81 1013.9
20260906102228 78 170 0.9 0.9 0.00 0.00 0.00 80 1014.0
20260906101724 78 163 0.0 0.0 0.00 0.00 0.00 81 1014.2
20260906101218 79 162 0.0 0.0 0.00 0.00 0.00 81 1013.8
20260906100714 79 170 0.9 0.9 0.00 0.00 0.00 80 1013.8
20260906100214 79 161 0.0 0.0 0.00 0.00 0.00 80 1013.9
20260906095714 79 165 0.9 0.9 0.00 0.00 0.00 80 1013.8
20260906095210 79 180 0.9 1.7 0.00 0.00 0.00 81 1014.0
20260906094708 79 172 0.9 0.9 0.00 0.00 0.00 80 1013.7
20260906094204 79 164 0.0 0.9 0.00 0.00 0.00 81 1013.9
20260906093701 80 161 0.0 0.0 0.00 0.00 0.00 81 1013.8
20260906093156 80 167 0.0 0.0 0.00 0.00 0.00 81 1013.6
20260906092651 80 163 0.0 0.9 0.00 0.00 0.00 80 1013.8
20260906092144 80 166 0.0 0.9 0.00 0.00 0.00 80 1013.6
20260906091641 80 166 0.0 0.0 0.00 0.00 0.00 80 1013.6
20260906091137 80 179 0.0 0.0 0.00 0.00 0.00 80 1013.7
20260906090632 80 160 0.0 0.0 0.00 0.00 0.00 81 1013.5
20260906090132 80 165 0.0 0.0 0.00 0.00 0.00 80 1013.4
20260906085631 80 164 0.0 0.0 0.00 0.00 0.00 80 1013.4
20260906085125 80 165 0.0 0.0 0.00 0.00 0.00 79 1013.4
20260906084620 81 152 0.0 0.0 0.00 0.00 0.00 79 1013.1
20260906084119 81 158 0.0 0.0 0.00 0.00 0.00 78 1013.2
20260906083615 81 155 0.0 0.0 0.00 0.00 0.00 78 1013.2
20260906083114 81 161 0.0 0.0 0.00 0.00 0.00 77 1013.3
20260906082610 82 166 0.9 0.9 0.00 0.00 0.00 77 1013.5
20260906082106 82 195 0.0 0.9 0.00 0.00 0.00 78 1013.4
20260906081602 82 126 2.6 3.5 0.00 0.00 0.00 78 1013.0
20260906081056 82 225 1.7 2.6 0.00 0.00 0.00 80 1013.1
20260906080553 82 153 0.0 0.9 0.00 0.00 0.00 80 1013.2
20260906080049 82 161 0.0 0.0 0.00 0.00 0.00 80 1013.0
20260906075549 82 157 0.0 0.0 0.00 0.00 0.00 80 1013.3
20260906075044 82 164 0.0 0.0 0.00 0.00 0.00 80 1013.2
20260906074538 82 171 0.9 1.7 0.00 0.00 0.00 81 1013.1
20260906074037 82 170 0.9 1.7 0.00 0.00 0.00 81 1013.1
20260906073532 82 159 0.0 0.0 0.00 0.00 0.00 80 1013.0
20260906073028 82 165 1.7 2.6 0.00 0.00 0.00 81 1013.0
20260906072523 82 159 0.0 0.0 0.00 0.00 0.00 80 1013.0
20260906072019 82 161 0.0 0.0 0.00 0.00 0.00 80 1012.9
20260906071515 82 175 0.9 0.9 0.00 0.00 0.00 80 1012.9
20260906071010 83 153 0.0 0.0 0.00 0.00 0.00 80 1013.0
20260906070506 83 155 0.0 0.0 0.00 0.00 0.00 79 1012.9
20260906070002 83 160 0.0 0.0 0.00 0.00 0.00 79 1013.1
20260906065501 83 151 0.0 0.0 0.00 0.00 0.00 78 1013.0
20260906064957 83 177 0.0 0.9 0.00 0.00 0.00 78 1013.2
20260906064453 83 190 0.9 0.9 0.00 0.00 0.00 79 1013.2
20260906063947 82 149 0.9 1.7 0.00 0.00 0.00 80 1013.3
20260906063443 82 179 0.9 1.7 0.00 0.00 0.00 80 1013.5
20260906062943 82 162 0.0 0.0 0.00 0.00 0.00 81 1013.2
20260906062438 81 141 0.0 0.0 0.00 0.00 0.00 82 1013.2
20260906061933 80 155 0.0 0.0 0.00 0.00 0.00 83 1013.2
20260906061429 80 147 0.0 0.0 0.00 0.00 0.00 84 1013.1
20260906060923 80 162 0.0 0.0 0.00 0.00 0.00 84 1013.3
20260906060421 80 155 0.0 0.0 0.00 0.00 0.00 84 1013.3
20260906055917 80 155 0.0 0.0 0.00 0.00 0.00 83 1013.4
20260906055412 80 155 0.0 0.0 0.00 0.00 0.00 83 1013.4
20260906054908 80 155 0.0 0.0 0.00 0.00 0.00 83 1013.3
20260906054402 80 155 0.0 0.0 0.00 0.00 0.00 83 1013.3
20260906053858 80 155 0.0 0.0 0.00 0.00 0.00 83 1013.2
20260906053354 80 156 0.0 0.0 0.00 0.00 0.00 82 1013.1
20260906052850 80 156 0.0 0.0 0.00 0.00 0.00 82 1013.4
20260906052346 80 156 0.0 0.0 0.00 0.00 0.00 82 1013.1
20260906051843 81 155 0.0 0.0 0.00 0.00 0.00 81 1013.2
20260906051342 81 156 0.0 0.0 0.00 0.00 0.00 81 1013.3
20260906050838 81 155 0.0 0.0 0.00 0.00 0.00 81 1013.3
20260906050333 81 156 0.0 0.0 0.00 0.00 0.00 81 1013.1
20260906045831 81 156 0.0 0.0 0.00 0.00 0.00 80 1012.9
20260906045326 81 156 0.0 0.0 0.00 0.00 0.00 80 1012.9
20260906044823 81 156 0.0 0.0 0.00 0.00 0.00 79 1013.0
20260906044317 81 156 0.0 0.0 0.00 0.00 0.00 79 1012.9
20260906043813 82 157 0.0 0.0 0.00 0.00 0.00 78 1012.9
20260906043309 82 156 0.0 0.0 0.00 0.00 0.00 78 1013.3
20260906042808 82 156 0.0 0.0 0.00 0.00 0.00 78 1013.0
20260906042308 82 157 0.0 0.0 0.00 0.00 0.00 77 1013.0
20260906041804 82 156 0.0 0.0 0.00 0.00 0.00 77 1013.1
20260906041304 82 157 0.0 0.0 0.00 0.00 0.00 77 1013.0
20260906040759 82 153 0.0 0.0 0.00 0.00 0.00 77 1012.8
20260906040254 82 153 0.0 0.0 0.00 0.00 0.00 77 1012.6
20260906035749 82 154 0.0 0.0 0.00 0.00 0.00 77 1012.5
20260906035245 82 154 0.0 0.0 0.00 0.00 0.00 77 1012.6
20260906034740 82 154 0.0 0.0 0.00 0.00 0.00 77 1012.5
20260906034235 82 157 0.0 0.0 0.00 0.00 0.00 76 1012.6
20260906033731 82 157 0.0 0.0 0.00 0.00 0.00 76 1012.6
20260906033230 82 154 0.0 0.0 0.00 0.00 0.00 76 1012.6
20260906032727 83 151 0.0 0.0 0.00 0.00 0.00 76 1012.5
20260906032227 83 154 0.0 0.0 0.00 0.00 0.00 75 1012.5
20260906031722 83 155 0.0 0.0 0.00 0.00 0.00 75 1012.5
20260906031218 83 152 0.0 0.0 0.00 0.00 0.00 75 1012.2
20260906030717 83 154 0.0 0.0 0.00 0.00 0.00 75 1012.3
20260906030213 83 155 0.0 0.0 0.00 0.00 0.00 74 1012.5
20260906025712 83 156 0.0 0.0 0.00 0.00 0.00 74 1012.1
20260906025212 83 155 0.0 0.0 0.00 0.00 0.00 73 1012.1
20260906024711 84 155 0.0 0.0 0.00 0.00 0.00 73 1012.1
20260906024210 84 155 0.0 0.0 0.00 0.00 0.00 72 1012.1
20260906023707 84 155 0.0 0.0 0.00 0.00 0.00 72 1012.1
20260906023206 84 155 0.0 0.0 0.00 0.00 0.00 71 1011.9
20260906022702 84 155 0.0 0.0 0.00 0.00 0.00 71 1011.8
20260906022157 84 155 0.0 0.0 0.00 0.00 0.00 70 1011.8
20260906021653 84 155 0.0 0.0 0.00 0.00 0.00 69 1011.5
20260906021152 85 155 0.0 0.0 0.00 0.00 0.00 69 1011.6
20260906020647 85 155 0.0 0.0 0.00 0.00 0.00 68 1011.5
20260906020141 85 156 0.0 0.0 0.00 0.00 0.00 68 1011.4
20260906015636 86 155 0.0 0.0 0.00 0.00 0.00 67 1011.4
20260906015135 86 155 0.0 0.0 0.00 0.00 0.00 66 1011.3
20260906014634 86 155 0.0 0.0 0.00 0.00 0.00 66 1011.3
20260906014131 86 155 0.0 0.0 0.00 0.00 0.00 65 1011.1
20260906013626 87 155 0.0 0.0 0.00 0.00 0.00 64 1011.1
20260906013121 87 155 0.0 0.0 0.00 0.00 0.00 64 1011.1
20260906012616 87 153 0.0 0.0 0.00 0.00 0.00 63 1011.1
20260906012116 87 153 0.0 0.0 0.00 0.00 0.00 62 1011.1
20260906011613 88 153 0.0 0.0 0.00 0.00 0.00 61 1010.9
20260906011112 88 153 0.0 0.0 0.00 0.00 0.00 61 1011.0
20260906010608 89 156 0.0 0.0 0.00 0.00 0.00 59 1010.9
20260906010104 89 155 0.0 0.0 0.00 0.00 0.00 58 1010.8
20260906005603 90 156 0.0 0.0 0.00 0.00 0.00 57 1010.6
20260906005103 90 158 0.0 0.0 0.00 0.00 0.00 56 1010.7
20260906004602 91 155 0.0 0.0 0.00 0.00 0.00 55 1010.7
20260906004057 92 155 0.0 0.0 0.00 0.00 0.00 54 1010.5
20260906003552 93 156 0.0 0.0 0.00 0.00 0.00 52 1010.4
20260906003048 94 156 0.0 0.0 0.00 0.00 0.00 50 1010.6
20260906002542 94 160 0.0 0.0 0.00 0.00 0.00 48 1010.5
20260906002037 95 161 0.0 0.0 0.00 0.00 0.00 47 1010.6
20260906001533 95 162 0.0 0.0 0.00 0.00 0.00 47 1010.5
20260906001032 95 169 0.0 0.0 0.00 0.00 0.00 47 1010.7
20260906000529 95 163 0.0 0.0 0.00 0.00 0.00 46 1010.7
20260906000024 96 162 0.0 0.0 0.00 0.00 0.00 46 1010.5
20260905235523 96 161 0.0 0.0 0.00 0.00 0.00 46 1010.7
20260905235019 96 163 0.0 0.0 0.00 0.00 0.00 45 1010.6
20260905234514 96 160 0.0 0.0 0.00 0.00 0.00 45 1010.6
20260905234008 97 159 0.0 0.0 0.00 0.00 0.00 45 1010.7
20260905233503 97 162 0.0 0.0 0.00 0.00 0.00 44 1010.6
20260905233002 97 165 0.0 0.0 0.00 0.00 0.00 45 1010.7
20260905232458 97 169 0.0 0.0 0.00 0.00 0.00 43 1010.7
20260905231954 97 188 0.9 0.9 0.00 0.00 0.00 44 1010.8
20260905231449 97 166 0.9 0.9 0.00 0.00 0.00 44 1010.9
20260905230946 97 165 0.0 0.0 0.00 0.00 0.00 44 1011.0
20260905230444 97 162 0.0 0.0 0.00 0.00 0.00 44 1010.9
20260905225942 98 170 1.7 1.7 0.00 0.00 0.00 44 1011.0
20260905225438 98 166 0.0 0.0 0.00 0.00 0.00 44 1010.8
20260905224933 98 182 0.9 0.9 0.00 0.00 0.00 44 1010.7
20260905224429 98 159 0.0 0.0 0.00 0.00 0.00 45 1010.7
20260905223928 98 158 0.0 0.0 0.00 0.00 0.00 44 1010.5
20260905223426 98 164 0.0 0.0 0.00 0.00 0.00 45 1010.5
20260905222926 97 169 0.0 0.0 0.00 0.00 0.00 44 1010.6
20260905222426 97 163 0.0 0.0 0.00 0.00 0.00 45 1010.7
20260905221921 97 159 0.0 0.0 0.00 0.00 0.00 46 1010.7
20260905221418 97 165 0.0 0.0 0.00 0.00 0.00 46 1010.6
20260905220914 97 155 0.0 0.0 0.00 0.00 0.00 44 1010.7
20260905220410 97 162 0.9 0.9 0.00 0.00 0.00 43 1010.8
20260905215908 97 156 0.0 0.0 0.00 0.00 0.00 44 1010.8
20260905215404 98 157 0.0 0.0 0.00 0.00 0.00 43 1011.0
20260905214900 98 161 0.9 0.9 0.00 0.00 0.00 41 1010.9
20260905214356 98 176 0.9 0.9 0.00 0.00 0.00 42 1010.9
20260905213851 98 157 0.0 0.9 0.00 0.00 0.00 41 1010.8
20260905213348 98 149 0.9 1.7 0.00 0.00 0.00 41 1010.7
20260905212847 98 162 0.0 0.0 0.00 0.00 0.00 40 1010.9
20260905212342 97 152 0.0 0.0 0.00 0.00 0.00 41 1010.7
20260905211841 97 160 0.0 0.0 0.00 0.00 0.00 42 1010.7
20260905211337 96 156 0.0 0.0 0.00 0.00 0.00 42 1010.9
20260905210834 95 152 0.0 0.0 0.00 0.00 0.00 43 1010.9
20260905210333 94 161 0.0 0.0 0.00 0.00 0.00 43 1010.8
20260905205833 94 157 0.9 0.9 0.00 0.00 0.00 43 1011.0
20260905205333 93 138 0.9 0.9 0.00 0.00 0.00 43 1011.0
20260905204832 93 155 0.0 0.9 0.00 0.00 0.00 45 1011.1
20260905204328 93 153 0.9 1.7 0.00 0.00 0.00 44 1011.2
20260905203827 93 166 2.6 2.6 0.00 0.00 0.00 42 1011.4
20260905203323 96 152 3.5 5.2 0.00 0.00 0.00 39 1011.4
20260905202818 99 187 2.6 3.5 0.00 0.00 0.00 41 1011.2
20260905202313 100 163 0.9 0.9 0.00 0.00 0.00 39 1011.3
20260905201809 100 173 0.9 0.9 0.00 0.00 0.00 38 1011.2
20260905201305 101 170 0.9 0.9 0.00 0.00 0.00 38 1011.3
20260905200804 102 163 0.0 0.9 0.00 0.00 0.00 37 1011.2
20260905200301 102 169 1.7 2.6 0.00 0.00 0.00 36 1011.2
20260905195758 102 159 0.9 0.9 0.00 0.00 0.00 35 1011.1
20260905195254 102 160 0.0 0.9 0.00 0.00 0.00 37 1011.3
20260905194749 102 164 0.0 0.0 0.00 0.00 0.00 36 1011.2
20260905194249 102 275 3.5 3.5 0.00 0.00 0.00 35 1011.4
20260905193748 103 185 0.9 0.9 0.00 0.00 0.00 36 1011.4
20260905193243 102 153 0.9 1.7 0.00 0.00 0.00 37 1011.7
20260905192738 102 193 1.7 1.7 0.00 0.00 0.00 37 1011.7
20260905192235 102 173 1.7 2.6 0.00 0.00 0.00 38 1011.7
20260905191735 102 163 0.0 0.9 0.00 0.00 0.00 36 1011.8
20260905191233 101 175 0.9 1.7 0.00 0.00 0.00 37 1011.8
20260905190732 102 160 0.9 0.9 0.00 0.00 0.00 36 1011.8
20260905190231 103 171 1.7 2.6 0.00 0.00 0.00 35 1011.9
20260905185730 102 166 0.0 0.9 0.00 0.00 0.00 35 1011.9
20260905185225 103 191 2.6 3.5 0.00 0.00 0.00 34 1011.9
20260905184725 104 182 1.7 1.7 0.00 0.00 0.00 34 1011.9
20260905184224 104 143 0.9 0.9 0.00 0.00 0.00 35 1012.1
20260905183723 104 213 1.7 2.6 0.00 0.00 0.00 36 1012.0
20260905183219 104 162 0.9 1.7 0.00 0.00 0.00 37 1012.2
20260905182718 104 181 0.9 0.9 0.00 0.00 0.00 38 1012.1
20260905182218 104 158 0.0 0.0 0.00 0.00 0.00 38 1012.3
20260905181714 104 207 1.7 2.6 0.00 0.00 0.00 38 1012.6
20260905181213 104 158 0.9 0.9 0.00 0.00 0.00 38 1012.2
20260905180707 104 155 0.0 0.0 0.00 0.00 0.00 39 1012.6
20260905180203 104 156 0.0 0.0 0.00 0.00 0.00 40 1012.6
20260905175701 104 166 0.0 0.9 0.00 0.00 0.00 38 1012.7
20260905175157 103 168 0.0 0.9 0.00 0.00 0.00 39 1012.5
20260905174652 102 183 0.9 0.9 0.00 0.00 0.00 39 1012.7
20260905174148 102 182 0.9 1.7 0.00 0.00 0.00 40 1012.9
20260905173644 102 189 1.7 2.6 0.00 0.00 0.00 39 1012.9
20260905173140 103 173 0.9 0.9 0.00 0.00 0.00 38 1012.9
20260905172639 103 158 0.0 0.9 0.00 0.00 0.00 39 1012.9
20260905172138 102 169 0.0 0.9 0.00 0.00 0.00 42 1013.0
20260905171635 103 163 1.7 1.7 0.00 0.00 0.00 42 1013.2
20260905171131 103 155 0.0 0.9 0.00 0.00 0.00 41 1013.3
20260905170627 102 162 0.0 0.9 0.00 0.00 0.00 42 1013.1
20260905170123 102 177 1.7 1.7 0.00 0.00 0.00 43 1013.1
20260905165617 102 161 0.9 0.9 0.00 0.00 0.00 44 1013.2
20260905165112 101 165 0.9 0.9 0.00 0.00 0.00 45 1013.2
20260905164608 101 207 1.7 1.7 0.00 0.00 0.00 42 1013.5
20260905164106 100 156 0.9 0.9 0.00 0.00 0.00 45 1013.5
20260905163603 101 164 0.9 1.7 0.00 0.00 0.00 44 1013.5
20260905163059 100 189 0.9 1.7 0.00 0.00 0.00 45 1013.5
20260905162555 100 178 0.9 1.7 0.00 0.00 0.00 44 1013.5
20260905162055 99 151 0.9 0.9 0.00 0.00 0.00 46 1013.5
20260905161555 99 168 1.7 1.7 0.00 0.00 0.00 45 1013.5
20260905161053 99 153 1.7 1.7 0.00 0.00 0.00 46 1013.5
20260905160552 98 160 0.9 1.7 0.00 0.00 0.00 46 1013.6
20260905160051 99 186 0.9 1.7 0.00 0.00 0.00 47 1013.8
20260905155551 98 153 0.0 0.0 0.00 0.00 0.00 48 1013.6
20260905155050 98 152 1.7 1.7 0.00 0.00 0.00 47 1013.8
20260905154545 98 164 0.9 0.9 0.00 0.00 0.00 50 1013.7
20260905154041 97 176 0.9 0.9 0.00 0.00 0.00 50 1013.6
20260905153537 96 170 0.9 0.9 0.00 0.00 0.00 51 1013.9
20260905153036 95 152 0.9 0.9 0.00 0.00 0.00 51 1013.8
20260905152531 95 157 0.0 0.9 0.00 0.00 0.00 53 1013.7
20260905152026 95 142 1.7 2.6 0.00 0.00 0.00 51 1013.7
20260905151521 94 153 1.7 2.6 0.00 0.00 0.00 52 1013.7
20260905151016 94 152 0.0 0.0 0.00 0.00 0.00 54 1013.8
20260905150512 95 179 2.6 2.6 0.00 0.00 0.00 52 1013.8
20260905150010 96 189 0.9 1.7 0.00 0.00 0.00 51 1013.6